Location: Kellogg
(38.0159°N, 90.0546°W)
Time: 02:17:53
(UTC+00:00)

Tiangong - Visible Passes

Search period start: 22 January 2026 00:00
Search period end: 01 February 2026 00:00
Orbit: 378 x 392 km, 41.5° (Epoch: 21 January)

Date Brightness Start Highest point End Pass type
(mag) Time Alt. Az. Time Alt. Az. Time Alt. Az.
22 Jan 1.3 10:40:03 11° ENE 10:40:03 11° ENE 10:40:15 10° ENE visible
22 Jan -1.5 12:12:16 20° WNW 12:14:06 42° N 12:17:09 10° ENE visible
23 Jan -0.5 11:15:34 30° NE 11:15:34 30° NE 11:17:31 10° ENE visible
24 Jan -1.5 11:50:58 34° NW 11:51:49 42° N 11:54:52 10° ENE visible
25 Jan 0.7 10:54:05 17° ENE 10:54:05 17° ENE 10:55:03 10° ENE visible
25 Jan -2.0 12:26:18 13° WNW 12:29:05 65° NNE 12:32:15 10° E visible
26 Jan -1.6 11:29:21 49° NNE 11:29:21 49° NNE 11:32:21 10° E visible
27 Jan -2.2 12:04:34 24° WNW 12:06:19 84° SSW 12:09:29 10° ESE visible
28 Jan -0.5 11:07:34 34° E 11:07:34 34° E 11:09:33 10° E visible
29 Jan -1.8 11:42:44 44° WSW 11:43:14 49° SSW 11:46:18 10° SE visible
30 Jan 0.9 10:45:42 15° ESE 10:45:42 15° ESE 10:46:24 10° ESE visible
30 Jan 0.0 12:17:54 11° WSW 12:19:44 16° SW 12:21:45 10° S visible
31 Jan -0.2 11:20:53 22° S 11:20:53 22° S 11:22:34 10° SSE visible
